Regional Weather Roundup
Issued by NWS

Home | Current Version | Previous Version | Text Only | Print | Product List | Glossary On
Versions: 1 2 3 4 5 6 7 8 9 10 11 12 13 14 15 16 17 18 19 20 21 22 23 24 25 26 27 28 29 30 31 32 33 34 35 36 37 38 39 40 41 42 43 44 45 46 47 48 49
000
ASUS43 KDMX 172307
RWRIA

WEATHER ROUNDUP FOR IOWA
NATIONAL WEATHER SERVICE DES MOINES IA
500 PM CST WED DEC 17 2014

NOTE: "FAIR" INDICATES FEW OR NO CLOUDS BELOW 12,000 FEET WITH NO
SIGNIFICANT WEATHER AND/OR OBSTRUCTIONS TO VISIBILITY.

* - THESE STATIONS ARE NOT NWS STATIONS...THUS NOT UNDER NWS
QUALITY CONTROL.  THEY ALSO DO NOT REPORT WEATHER SUCH
AS PRECIPITATION OR FOG.

IAZ001>003-012>014-020>022-031>034-043>046-180000-
   NORTHWEST IOWA

CITY           SKY/WX    TMP DP  RH WIND       PRES   REMARKS
CARROLL *      CLEAR     25  16  68 CALM      30.28R
CHEROKEE *     CLEAR     25  18  74 CALM      30.28R
DENISON *      CLEAR     23  19  86 E5        30.25S WCI  17
LE MARS *      CLEAR     23  16  74 CALM      30.29R
ORANGE CITY *  CLEAR     23  16  74 CALM      30.26S
SHELDON *      CLEAR     19  18  93 W6        30.25R WCI  11
SIOUX CITY     CLOUDY    25  15  66 E7        30.28S WCI  17
SPENCER        CLEAR     20  14  77 N7        30.27R WCI  11
STORM LAKE *   CLEAR     23  16  74 CALM      30.27R
$$

IAZ055>058-069>071-079>083-090>094-180000-
   SOUTHWEST IOWA

CITY           SKY/WX    TMP DP  RH WIND       PRES   REMARKS
ATLANTIC *     MOCLDY    27  18  69 CALM      30.25S
AUDUBON *      CLEAR     25  16  68 CALM      30.27S
CLARINDA *     CLOUDY    28  19  69 E5        30.28R WCI  23
COUNCIL BLFS * CLOUDY    27  18  69 E5        30.24S WCI  21
CRESTON *      CLOUDY    27  19  74 NE5       30.25S WCI  21
HARLAN  *      CLEAR     27  21  80 NE7       30.28F WCI  19
LAMONI         MOCLDY    26  17  68 CALM      30.26S
RED OAK *      CLOUDY    28  19  69 NE3       30.26S
SHENANDOAH *   CLOUDY    28  19  69 E5        30.28R WCI  23
$$

IAZ047>049-059>061-072>074-084-180000-
   CENTRAL IOWA

CITY           SKY/WX    TMP DP  RH WIND       PRES   REMARKS
AMES           CLEAR     23  15  71 N3        30.29R
ANKENY *       CLEAR     25  16  68 CALM      30.30R
CHARITON *     CLEAR     27  16  63 NE5       30.27F WCI  21
DES MOINES     PTCLDY    26  15  63 W3        30.30R
GRINNELL*      CLEAR     23  18  80 CALM      30.29R
KNOXVILLE *    CLEAR     25  16  68 N5        30.27F WCI  19
MARSHALLTOWN   CLEAR     22  16  78 NW5       30.28R WCI  16
PELLA *        CLEAR     25  18  74 N3        30.31S
PERRY *          N/A     25  19  80 CALM      30.30R
$$

IAZ004>006-015-016-023>025-035-036-180000-
   NORTH CENTRAL IOWA

CITY           SKY/WX    TMP DP  RH WIND       PRES   REMARKS
ALGONA *       CLEAR     21  18  86 N5        30.28R WCI  15
CLARION *      PTCLDY    21  19  93 NW5       30.28R WCI  15
ESTHERVILLE    CLEAR     18  13  80 N6        30.27R WCI  10
FORT DODGE *   CLEAR     21  14  73 N3        30.28S
MASON CITY     CLEAR     17  13  84 NW7       30.29R WCI   8
FOREST CITY *  PTCLDY    19  14  79 NW6       30.27S WCI  11
IOWA FALLS *     N/A     23  18  80 NW5       30.29R WCI  17
$$

IAZ007>011-017>019-026>030-037>042-050>054-066-180000-
   NORTHEAST IOWA

CITY           SKY/WX    TMP DP  RH WIND       PRES   REMARKS
CEDAR RAPIDS   CLEAR     21  15  78 NW6       30.28R WCI  13
CHARLES CITY * PTCLDY    21  18  86 NW7       30.28R WCI  13
CLINTON *      CLEAR     19  12  73 N6        30.30S WCI  11
DECORAH *      PTCLDY    21  14  73 N6        30.25R WCI  14
DUBUQUE        CLEAR     19  14  81 N5        30.26R WCI  12
MONTICELLO *   CLEAR     23  16  74 NW5       30.27S WCI  17
OELWEIN *      PTCLDY    21  16  79 NW6       30.27S WCI  14
WATERLOO       CLEAR     20  14  77 NW5       30.28S WCI  13
$$

IAZ064-065-067-068-078-180000-
   EAST CENTRAL IOWA

CITY           SKY/WX    TMP DP  RH WIND       PRES   REMARKS
DAVENPORT      CLEAR     23  15  71 NW6       30.28R WCI  16
IOWA CITY      CLEAR     24  15  68 NW6       30.31R WCI  17
MT. PLEASANT * PTCLDY    27  18  69 NW5       30.28F WCI  21
MUSCATINE *    CLEAR     25  18  74 NW5       30.31R WCI  19
QUAD CITIES    CLEAR     25  15  66 NW9       30.28S WCI  15
$$

IAZ062-063-075>077-085>089-095>099-180000-
   SOUTHEAST IOWA

CITY           SKY/WX    TMP DP  RH WIND       PRES   REMARKS
BURLINGTON     PTCLDY    28  20  71 N6        30.28S WCI  22
FAIRFIELD *    CLEAR     25  18  74 NW6       30.29F WCI  18
FORT MADISON * CLEAR     28  21  74 W3        30.29S
KEOKUK *       CLEAR     28  19  69 CALM      30.29S
OSKALOOSA *      N/A     23  18  80 NW6       30.29F WCI  16
CENTERVILLE *    N/A     27  19  74 N3        30.28S
OTTUMWA        CLEAR     22  16  78 N6        30.28S WCI  14
WASHINGTON *   CLEAR     25  19  80 NW6       30.30R WCI  18
$$

ABBREVIATIONS USED IN REMARKS
   TC - TEMPERATURES IN CELSIUS
  WCI - WIND CHILL INDEX
   HX - HEAT INDEX
  VSB - VISIBILITY
$$



USA.gov is the U.S. government's official web portal to all federal, state and local government web resources and services.